Weather Roundup
Issued by NWS

Home | Current Version | Previous Version | Text Only | Print | Product List | Glossary On
Versions: 1 2 3 4 5 6 7 8 9 10 11 12 13 14 15 16 17 18 19 20 21 22 23 24 25 26 27 28 29 30 31 32 33 34 35 36 37 38 39 40 41 42 43 44 45 46 47 48 49 50
000
NZUS93 KARX 112210
HRRWXR

CURRENT HOURLY OBSERVATIONS ACROSS
MUCH OF THE UPPER MISSISSIPPI VALLEY
NATIONAL WEATHER SERVICE LA CROSSE WI
400 PM CST MON DEC 11 2017


...SOUTHEAST MINNESOTA...


CITY           SKY/WX    TMP DP  RH WIND       PRES   REMARKS
ROCHESTER      CLOUDY    32  29  88 N18       29.89R WCI  20
ROCHESTER/MAYO CLOUDY    32  29  88 NW13G23   29.91R WCI  22
WINONA         CLOUDY    34  30  86 NW14G22   29.89R WCI  24
AUSTIN         NOT AVBL
ALBERT LEA     NOT AVBL
DODGE CENTER   CLOUDY    30  27  86 NW20      29.91R WCI  18
PRESTON        CLOUDY    31  28  86 N17G32    29.88R WCI  20
OWATONNA       CLOUDY    34  28  80 NW17G25   29.95R WCI  23
FARIBAULT      CLOUDY    34  27  75 NW20G28   29.96R WCI  22
$$

...ELSEWHERE IN MINNESOTA...


CITY           SKY/WX    TMP DP  RH WIND       PRES   REMARKS
MINNEAPOLIS    CLOUDY    31  23  72 N20G29    29.99R WCI  19
INTNL FALLS    CLOUDY    14   7  73 NW13      30.08R HAZE    WCI   0
DULUTH         MOCLDY    19  11  70 NW18G29   29.95R WCI   4
RED WING       CLOUDY    34  25  69 N12G18    29.93R WCI  25
REDWOOD FALLS  CLOUDY    27  18  69 NW18G35   30.09R WCI  14
MANKATO        CLOUDY    34  25  69 NW25G31   30.01R WCI  21
WORTHINGTON    CLOUDY    26  20  77 NW33      30.09R WCI   9
FAIRMONT       CLOUDY    30  26  85 NW29G36   30.02R WCI  15
$$

...SOUTHWEST WISCONSIN...


CITY           SKY/WX    TMP DP  RH WIND       PRES   REMARKS
LA CROSSE      CLOUDY    34  27  75 N17       29.86R WCI  23
PRAIRIE DU CHI CLOUDY    33  30  89 NW5       29.82R WCI  28
BOSCOBEL       CLOUDY    34  29  82 VRB3      29.81R
LONE ROCK      CLOUDY    31  28  89 W6        29.79R FOG     WCI  25
PLATTEVILLE    CLOUDY    32  32  99 NW6       29.77R WCI  26
FORT MC COY    CLOUDY    32  27  83 NW10G20   29.84R WCI  23
CAMP DOUGLAS   CLOUDY    32  27  80 NW15      29.79R WCI  22
MAUSTON-NEW LI CLOUDY    32  28  83 NW10G17   29.78R WCI  24
VIROQUA        CLOUDY    30  29  97 N16G23    29.79R WCI  19
WIS DELLS      CLOUDY    31  26  79 NW7       29.75R WCI  25
$$

...ELSEWHERE IN WISCONSIN...


CITY           SKY/WX    TMP DP  RH WIND       PRES   REMARKS
MILWAUKEE      CLOUDY    33  27  78 NW7       29.72R WCI  27
MADISON        CLOUDY    31  27  85 NW7       29.75R WCI  24
GREEN BAY      CLOUDY    28  25  88 NW8       29.75S WCI  20
EAU CLAIRE     CLOUDY    30  24  78 N12G21    29.88R WCI  20
BLACK RVR FLS  CLOUDY    32  24  74 NW7G16    29.84R WCI  25
MEDFORD        CLOUDY    26  23  89 NW12G17   29.79R WCI  15
WAUSAU         CLOUDY    26  23  88 NW9       29.76R WCI  17
WIS RAPIDS     CLOUDY    29  23  78 N17G24    29.80R WCI  17
MARSHFIELD     CLOUDY    28  23  81 N16       29.78R WCI  16
RICE LAKE      CLOUDY    28  19  68 NW17G24   29.92R WCI  16
$$

...NORTHEAST IOWA...


CITY           SKY/WX    TMP DP  RH WIND       PRES   REMARKS
WATERLOO       CLOUDY    36  32  85 NW26G35   29.85R WCI  24
DUBUQUE        CLOUDY    31  29  92 N13       29.78R FOG     WCI  21
DECORAH        CLOUDY    34  32  93 NW20G28   29.83R WCI  22
MASON CITY     CLOUDY    36  30  79 NW30G39   29.93R WCI  23
CHARLES CITY   CLOUDY    36  36 100 N20G33    29.88R WCI  25
OELWEIN        CLOUDY    36  36 100 NW23      29.83R WCI  24
$$

...ELSEWHERE IN IOWA...


CITY           SKY/WX    TMP DP  RH WIND       PRES   REMARKS
DES MOINES     CLOUDY    41  32  70 NW26G35   29.95R
IOWA CITY      LGT SNOW  36  33  89 NW13      29.85R FOG     WCI  27
FORT DODGE     CLOUDY    34  28  79 NW17G24   29.99R WCI  23
MARSHALLTOWN   CLOUDY    38  33  82 NW22G37   29.89R WCI  27
CEDAR RAPIDS   LGT SNOW  34  33  96 NW12      29.82R FOG     WCI  25
$$

...NORTHERN ILLINOIS...


CITY           SKY/WX    TMP DP  RH WIND       PRES   REMARKS
CHICAGO-OHARE  CLOUDY    37  25  61 N8        29.69R WCI  31
CHICAGO-MIDWAY CLOUDY    38  27  64 NE3       29.69R
MOLINE         LGT SNOW  37  33  85 NW16G28   29.78R FOG     WCI  28
ROCKFORD       SNOW      32  30  92 NW7       29.76R VSB 1/2 WCI  26
PEORIA         MOCLDY    43  25  49 NW16G28   29.73R
$$

NOTE: "FAIR" INDICATES FEW OR NO CLOUDS BELOW 12,000 FEET WITH NO
SIGNIFICANT WEATHER AND/OR OBSTRUCTIONS TO VISIBILITY. WIND
SPEEDS ARE IN MILES-PER-HOUR.




USA.gov is the U.S. government's official web portal to all federal, state and local government web resources and services.